Weather in Skiathos

Greece     39°09′43″N   23°29′29″E
temp.,
°C
wind,
m/s
gust,
m/s
humid.,
%
clouds,
%
prec.,
mm/h
press.,
hPa
HPBL,
m
17 june, thu
thu1700:00+23ssw45655 0.0 101441
03:00+22wsw12715 0.0 101531
06:00+22sw33705 0.1 101549
09:00+22wnw45745 0.1 1016121
12:00+23nnw23765 0.0 1017155
15:00+24s1166100 0.0 1017138
18:00+24sse55665 0.0 1016208
21:00+23se56742 0.0 1016103
18 june, fri
fri1800:00+23sse22742 0.0 101624
03:00+23nnw45751 0.0 101689
06:00+22nnw668251 0.0 1015257
09:00+22nnw448045 0.0 1016252
12:00+22n22765 0.0 1016188
15:00+23se11681 0.0 1014110
18:00+24se3367100 0.0 1012145
21:00+23sse5675100 0.1 101294
19 june, sat
sat1900:00+23e4575100 0.0 101362
03:00+23e227984 0.1 101226
06:00+22se1182100 0.0 101231
09:00+22ese22815 0.0 1013101
12:00+23se32775 0.0 1013236
15:00+23se43745 0.0 1012250
18:00+23sse44727 0.2 1011240
21:00+22sse127898 0.8 101140
20 june, sun
sun2000:00+22nw448497 0.5 1012136
03:00+22wsw4483100 0.5 1011186
06:00+22wnw34825 0.0 1011131
09:00+22nnw46840 0.0 1012334
12:00+22n67820 0.0 1013370
15:00+23e32800 0.0 1012249
18:00+23ese44780 0.0 1010248
21:00+23s34810 0.0 1011139
21 june, mon
mon2100:00+23sse22770 0.0 101125
03:00+23se22760 0.0 101121
06:00+23se22765 0.0 101121
09:00+23ese227534 0.0 101216
12:00+23e116969 0.0 1013103
15:00+24ese33679 0.0 1012201
18:00+24se45730 0.0 1011190
21:00+23sse56793 0.0 1011123